Location: Pitton
(51.0667°N, 1.7000°W)
Time: 09:56:58
(UTC+00:00)

MetOp-B - Pass Details

Date: 17 September 2019
Orbit: 819 x 821 km, 98.7° (Epoch: 22 October)

Event Time Altitude Azimuth Distance (km) Brightness Sun altitude
Exits shadow 21:14:35 48° 207° (SSW) 1,065 4.5 -26.1°
Maximum altitude 21:15:48 61° 258° (WSW) 932 4.5 -26.3°
Drops below altitude 10° 21:21:07 10° 339° (NNW) 2,429 7.4 -26.9°
Sets 21:23:31 0° 343° (NNW) 3,366 8.3 -27.2°
